Year,Month,Day,Hour,Minute,Value (Times are PST for temperature in C)
2010,07,09,00,00,23.20
2010,07,09,00,01,23.10
2010,07,09,00,02,23.10
2010,07,09,00,03,23.10
2010,07,09,00,04,23.10
2010,07,09,00,05,23.10
2010,07,09,00,06,23.00
2010,07,09,00,07,23.00
2010,07,09,00,08,23.00
2010,07,09,00,09,23.00
2010,07,09,00,10,22.90
2010,07,09,00,11,22.90
2010,07,09,00,12,22.90
2010,07,09,00,13,22.90
2010,07,09,00,14,22.90
2010,07,09,00,15,22.90
2010,07,09,00,16,22.90
2010,07,09,00,17,22.90
2010,07,09,00,18,22.90
2010,07,09,00,19,22.90
2010,07,09,00,20,22.90
2010,07,09,00,21,22.90
2010,07,09,00,22,22.90
2010,07,09,00,23,22.90
2010,07,09,00,24,22.90
2010,07,09,00,25,22.90
2010,07,09,00,26,22.90
2010,07,09,00,27,22.90
2010,07,09,00,28,23.00
2010,07,09,00,29,23.00
2010,07,09,00,30,23.00
2010,07,09,00,31,23.00
2010,07,09,00,32,23.00
2010,07,09,00,33,23.10
2010,07,09,00,34,23.10
2010,07,09,00,35,23.10
2010,07,09,00,36,23.10
2010,07,09,00,37,23.10
2010,07,09,00,38,23.10
2010,07,09,00,39,23.10
2010,07,09,00,40,23.10
2010,07,09,00,41,23.10
2010,07,09,00,42,23.10
2010,07,09,00,43,23.10
2010,07,09,00,44,23.10
2010,07,09,00,45,23.10
2010,07,09,00,46,23.10
2010,07,09,00,47,23.10
2010,07,09,00,48,23.10
2010,07,09,00,49,23.00
2010,07,09,00,50,23.00
2010,07,09,00,51,23.00
2010,07,09,00,52,23.00
2010,07,09,00,53,22.90
2010,07,09,00,54,22.90
2010,07,09,00,55,22.90
2010,07,09,00,56,22.90
2010,07,09,00,57,22.90
2010,07,09,00,58,22.90
2010,07,09,00,59,22.90
2010,07,09,01,00,22.90
2010,07,09,01,01,22.90
2010,07,09,01,02,22.90
2010,07,09,01,03,22.80
2010,07,09,01,04,22.80
2010,07,09,01,05,22.80
2010,07,09,01,06,22.80
2010,07,09,01,07,22.80
2010,07,09,01,08,22.80
2010,07,09,01,09,22.80
2010,07,09,01,10,22.80
2010,07,09,01,11,22.80
2010,07,09,01,12,22.80
2010,07,09,01,13,22.80
2010,07,09,01,14,22.80
2010,07,09,01,15,22.80
2010,07,09,01,16,22.80
2010,07,09,01,17,22.80
2010,07,09,01,18,22.80
2010,07,09,01,19,22.80
2010,07,09,01,20,22.70
2010,07,09,01,21,22.70
2010,07,09,01,22,22.70
2010,07,09,01,23,22.70
2010,07,09,01,24,22.70
2010,07,09,01,25,22.70
2010,07,09,01,26,22.70
2010,07,09,01,27,22.70
2010,07,09,01,28,22.80
2010,07,09,01,29,22.80
2010,07,09,01,30,22.80
2010,07,09,01,31,22.90
2010,07,09,01,32,22.90
2010,07,09,01,33,22.90
2010,07,09,01,34,22.90
2010,07,09,01,35,22.90
2010,07,09,01,36,22.80
2010,07,09,01,37,22.80
2010,07,09,01,38,22.70
2010,07,09,01,39,22.60
2010,07,09,01,40,22.50
2010,07,09,01,41,22.50
2010,07,09,01,42,22.40
2010,07,09,01,43,22.30
2010,07,09,01,44,22.30
2010,07,09,01,45,22.30
2010,07,09,01,46,22.20
2010,07,09,01,47,22.20
2010,07,09,01,48,22.10
2010,07,09,01,49,22.10
2010,07,09,01,50,22.00
2010,07,09,01,51,21.90
2010,07,09,01,52,21.80
2010,07,09,01,53,21.80
2010,07,09,01,54,21.70
2010,07,09,01,55,21.60
2010,07,09,01,56,21.50
2010,07,09,01,57,21.40
2010,07,09,01,58,21.30
2010,07,09,01,59,21.30
2010,07,09,02,00,21.30
2010,07,09,02,01,21.20
2010,07,09,02,02,21.20
2010,07,09,02,03,21.20
2010,07,09,02,04,21.10
2010,07,09,02,05,21.10
2010,07,09,02,06,21.10
2010,07,09,02,07,21.10
2010,07,09,02,08,21.00
2010,07,09,02,09,21.00
2010,07,09,02,10,20.90
2010,07,09,02,11,20.90
2010,07,09,02,12,20.90
2010,07,09,02,13,20.80
2010,07,09,02,14,20.80
2010,07,09,02,15,20.80
2010,07,09,02,16,20.70
2010,07,09,02,17,20.70
2010,07,09,02,18,20.70
2010,07,09,02,19,20.60
2010,07,09,02,20,20.60
2010,07,09,02,21,20.60
2010,07,09,02,22,20.50
2010,07,09,02,23,20.40
2010,07,09,02,24,20.40
2010,07,09,02,25,20.30
2010,07,09,02,26,20.30
2010,07,09,02,27,20.30
2010,07,09,02,28,20.20
2010,07,09,02,29,20.20
2010,07,09,02,30,20.10
2010,07,09,02,31,20.00
2010,07,09,02,32,20.00
2010,07,09,02,33,19.90
2010,07,09,02,34,19.90
2010,07,09,02,35,19.80
2010,07,09,02,36,19.80
2010,07,09,02,37,19.70
2010,07,09,02,38,19.70
2010,07,09,02,39,19.60
2010,07,09,02,40,19.60
2010,07,09,02,41,19.60
2010,07,09,02,42,19.60
2010,07,09,02,43,19.50
2010,07,09,02,44,19.50
2010,07,09,02,45,19.40
2010,07,09,02,46,19.40
2010,07,09,02,47,19.40
2010,07,09,02,48,19.30
2010,07,09,02,49,19.30
2010,07,09,02,50,19.30
2010,07,09,02,51,19.30
2010,07,09,02,52,19.20
2010,07,09,02,53,19.20
2010,07,09,02,54,19.20
2010,07,09,02,55,19.20
2010,07,09,02,56,19.10
2010,07,09,02,57,19.10
2010,07,09,02,58,19.10
2010,07,09,02,59,19.10
2010,07,09,03,00,19.10
2010,07,09,03,01,19.10
2010,07,09,03,02,19.10
2010,07,09,03,03,19.10
2010,07,09,03,04,19.00
2010,07,09,03,05,19.00
2010,07,09,03,06,18.90
2010,07,09,03,07,18.90
2010,07,09,03,08,18.90
2010,07,09,03,09,18.80
2010,07,09,03,10,18.80
2010,07,09,03,11,18.70
2010,07,09,03,12,18.70
2010,07,09,03,13,18.60
2010,07,09,03,14,18.50
2010,07,09,03,15,18.50
2010,07,09,03,16,18.40
2010,07,09,03,17,18.40
2010,07,09,03,18,18.30
2010,07,09,03,19,18.30
2010,07,09,03,20,18.20
2010,07,09,03,21,18.20
2010,07,09,03,22,18.20
2010,07,09,03,23,18.20
2010,07,09,03,24,18.10
2010,07,09,03,25,18.10
2010,07,09,03,26,18.10
2010,07,09,03,27,18.10
2010,07,09,03,28,18.00
2010,07,09,03,29,18.00
2010,07,09,03,30,18.00
2010,07,09,03,31,18.00
2010,07,09,03,32,18.00
2010,07,09,03,33,17.90
2010,07,09,03,34,17.90
2010,07,09,03,35,17.90
2010,07,09,03,36,17.80
2010,07,09,03,37,17.80
2010,07,09,03,38,17.80
2010,07,09,03,39,17.70
2010,07,09,03,40,17.70
2010,07,09,03,41,17.70
2010,07,09,03,42,17.70
2010,07,09,03,43,17.70
2010,07,09,03,44,17.80
2010,07,09,03,45,17.90
2010,07,09,03,46,17.90
2010,07,09,03,47,17.90
2010,07,09,03,48,17.90
2010,07,09,03,49,17.80
2010,07,09,03,50,17.80
2010,07,09,03,51,17.80
2010,07,09,03,52,17.80
2010,07,09,03,53,17.80
2010,07,09,03,54,17.70
2010,07,09,03,55,17.60
2010,07,09,03,56,17.50
2010,07,09,03,57,17.50
2010,07,09,03,58,17.40
2010,07,09,03,59,17.30
2010,07,09,04,00,17.30
2010,07,09,04,01,17.30
2010,07,09,04,02,17.30
2010,07,09,04,03,17.30
2010,07,09,04,04,17.40
2010,07,09,04,05,17.40
2010,07,09,04,06,17.50
2010,07,09,04,07,17.60
2010,07,09,04,08,17.60
2010,07,09,04,09,17.60
2010,07,09,04,10,17.50
2010,07,09,04,11,17.40
2010,07,09,04,12,17.40
2010,07,09,04,13,17.30
2010,07,09,04,14,17.30
2010,07,09,04,15,17.20
2010,07,09,04,16,17.20
2010,07,09,04,17,17.30
2010,07,09,04,18,17.40
2010,07,09,04,19,17.50
2010,07,09,04,20,17.60
2010,07,09,04,21,17.60
2010,07,09,04,22,17.60
2010,07,09,04,23,17.50
2010,07,09,04,24,17.50
2010,07,09,04,25,17.40
2010,07,09,04,26,17.40
2010,07,09,04,27,17.30
2010,07,09,04,28,17.30
2010,07,09,04,29,17.30
2010,07,09,04,30,17.20
2010,07,09,04,31,17.20
2010,07,09,04,32,17.10
2010,07,09,04,33,17.10
2010,07,09,04,34,17.10
2010,07,09,04,35,17.00
2010,07,09,04,36,17.00
2010,07,09,04,37,16.90
2010,07,09,04,38,16.90
2010,07,09,04,39,16.80
2010,07,09,04,40,16.80
2010,07,09,04,41,16.80
2010,07,09,04,42,16.80
2010,07,09,04,43,16.70
2010,07,09,04,44,16.70
2010,07,09,04,45,16.70
2010,07,09,04,46,16.60
2010,07,09,04,47,16.60
2010,07,09,04,48,16.60
2010,07,09,04,49,16.50
2010,07,09,04,50,16.50
2010,07,09,04,51,16.40
2010,07,09,04,52,16.40
2010,07,09,04,53,16.30
2010,07,09,04,54,16.30
2010,07,09,04,55,16.20
2010,07,09,04,56,16.20
2010,07,09,04,57,16.10
2010,07,09,04,58,16.10
2010,07,09,04,59,16.00
2010,07,09,05,00,16.00
2010,07,09,05,01,15.90
2010,07,09,05,02,15.90
2010,07,09,05,03,15.90
2010,07,09,05,04,15.80
2010,07,09,05,05,15.80
2010,07,09,05,06,15.70
2010,07,09,05,07,15.70
2010,07,09,05,08,15.70
2010,07,09,05,09,15.60
2010,07,09,05,10,15.60
2010,07,09,05,11,15.60
2010,07,09,05,12,15.50
2010,07,09,05,13,15.50
2010,07,09,05,14,15.40
2010,07,09,05,15,15.40
2010,07,09,05,16,15.40
2010,07,09,05,17,15.30
2010,07,09,05,18,15.30
2010,07,09,05,19,15.30
2010,07,09,05,20,15.30
2010,07,09,05,21,15.30
2010,07,09,05,22,15.20
2010,07,09,05,23,15.20
2010,07,09,05,24,15.20
2010,07,09,05,25,15.10
2010,07,09,05,26,15.10
2010,07,09,05,27,15.10
2010,07,09,05,28,15.10
2010,07,09,05,29,15.10
2010,07,09,05,30,15.10
2010,07,09,05,31,15.10
2010,07,09,05,32,15.10
2010,07,09,05,33,15.10
2010,07,09,05,34,15.10
2010,07,09,05,35,15.10
2010,07,09,05,36,15.10
2010,07,09,05,37,15.10
2010,07,09,05,38,15.10
2010,07,09,05,39,15.10
2010,07,09,05,40,15.10
2010,07,09,05,41,15.10
2010,07,09,05,42,15.10
2010,07,09,05,43,15.00
2010,07,09,05,44,15.00
2010,07,09,05,45,15.00
2010,07,09,05,46,15.00
2010,07,09,05,47,15.00
2010,07,09,05,48,15.00
2010,07,09,05,49,15.00
2010,07,09,05,50,15.00
2010,07,09,05,51,15.00
2010,07,09,05,52,15.00
2010,07,09,05,53,15.00
2010,07,09,05,54,15.00
2010,07,09,05,55,15.00
2010,07,09,05,56,15.00
2010,07,09,05,57,15.00
2010,07,09,05,58,15.00
2010,07,09,05,59,15.00
2010,07,09,06,00,15.00
2010,07,09,06,01,15.00
2010,07,09,06,02,15.00
2010,07,09,06,03,15.00
2010,07,09,06,04,15.00
2010,07,09,06,05,15.00
2010,07,09,06,06,15.00
2010,07,09,06,07,15.00
2010,07,09,06,08,15.00
2010,07,09,06,09,15.00
2010,07,09,06,10,15.10
2010,07,09,06,11,15.10
2010,07,09,06,12,15.10
2010,07,09,06,13,15.10
2010,07,09,06,14,15.00
2010,07,09,06,15,15.00
2010,07,09,06,16,15.00
2010,07,09,06,17,15.00
2010,07,09,06,18,15.00
2010,07,09,06,19,15.00
2010,07,09,06,20,15.00
2010,07,09,06,21,15.10
2010,07,09,06,22,15.10
2010,07,09,06,23,15.10
2010,07,09,06,24,15.10
2010,07,09,06,25,15.10
2010,07,09,06,26,15.10
2010,07,09,06,27,15.10
2010,07,09,06,28,15.10
2010,07,09,06,29,15.10
2010,07,09,06,30,15.10
2010,07,09,06,31,15.10
2010,07,09,06,32,15.10
2010,07,09,06,33,15.20
2010,07,09,06,34,15.20
2010,07,09,06,35,15.20
2010,07,09,06,36,15.30
2010,07,09,06,37,15.30
2010,07,09,06,38,15.40
2010,07,09,06,39,15.40
2010,07,09,06,40,15.50
2010,07,09,06,41,15.50
2010,07,09,06,42,15.50
2010,07,09,06,43,15.60
2010,07,09,06,44,15.60
2010,07,09,06,45,15.60
2010,07,09,06,46,15.70
2010,07,09,06,47,15.70
2010,07,09,06,48,15.70
2010,07,09,06,49,15.80
2010,07,09,06,50,15.90
2010,07,09,06,51,15.90
2010,07,09,06,52,16.00
2010,07,09,06,53,16.00
2010,07,09,06,54,16.10
2010,07,09,06,55,16.10
2010,07,09,06,56,16.20
2010,07,09,06,57,16.20
2010,07,09,06,58,16.30
2010,07,09,06,59,16.40
2010,07,09,07,00,16.50
2010,07,09,07,01,16.70
2010,07,09,07,02,16.80
2010,07,09,07,03,16.90
2010,07,09,07,04,17.00
2010,07,09,07,05,17.20
2010,07,09,07,06,17.30
2010,07,09,07,07,17.40
2010,07,09,07,08,17.50
2010,07,09,07,09,17.70
2010,07,09,07,10,17.80
2010,07,09,07,11,17.90
2010,07,09,07,12,18.00
2010,07,09,07,13,18.10
2010,07,09,07,14,18.20
2010,07,09,07,15,18.30
2010,07,09,07,16,18.40
2010,07,09,07,17,18.50
2010,07,09,07,18,18.60
2010,07,09,07,19,18.70
2010,07,09,07,20,18.80
2010,07,09,07,21,18.90
2010,07,09,07,22,19.00
2010,07,09,07,23,19.10
2010,07,09,07,24,19.20
2010,07,09,07,25,19.30
2010,07,09,07,26,19.40
2010,07,09,07,27,19.40
2010,07,09,07,28,19.50
2010,07,09,07,29,19.60
2010,07,09,07,30,19.70
2010,07,09,07,31,19.80
2010,07,09,07,32,19.80
2010,07,09,07,33,19.90
2010,07,09,07,34,19.90
2010,07,09,07,35,20.00
2010,07,09,07,36,20.10
2010,07,09,07,37,20.10
2010,07,09,07,38,20.20
2010,07,09,07,39,20.20
2010,07,09,07,40,20.30
2010,07,09,07,41,20.40
2010,07,09,07,42,20.50
2010,07,09,07,43,20.60
2010,07,09,07,44,20.60
2010,07,09,07,45,20.60
2010,07,09,07,46,20.70
2010,07,09,07,47,20.70
2010,07,09,07,48,20.80
2010,07,09,07,49,20.90
2010,07,09,07,50,21.00
2010,07,09,07,51,21.10
2010,07,09,07,52,21.20
2010,07,09,07,53,21.30
2010,07,09,07,54,21.30
2010,07,09,07,55,21.50
2010,07,09,07,56,21.50
2010,07,09,07,57,21.60
2010,07,09,07,58,21.70
2010,07,09,07,59,21.70
2010,07,09,08,00,21.80
2010,07,09,08,01,21.80
2010,07,09,08,02,21.80
2010,07,09,08,03,21.90
2010,07,09,08,04,22.00
2010,07,09,08,05,22.00
2010,07,09,08,06,22.10
2010,07,09,08,07,22.10
2010,07,09,08,08,22.20
2010,07,09,08,09,22.30
2010,07,09,08,10,22.40
2010,07,09,08,11,22.50
2010,07,09,08,12,22.60
2010,07,09,08,13,22.60
2010,07,09,08,14,22.60
2010,07,09,08,15,22.60
2010,07,09,08,16,22.70
2010,07,09,08,17,22.70
2010,07,09,08,18,22.70
2010,07,09,08,19,22.80
2010,07,09,08,20,22.90
2010,07,09,08,21,22.90
2010,07,09,08,22,23.00
2010,07,09,08,23,23.10
2010,07,09,08,24,23.10
2010,07,09,08,25,23.20
2010,07,09,08,26,23.20
2010,07,09,08,27,23.20
2010,07,09,08,28,23.30
2010,07,09,08,29,23.30
2010,07,09,08,30,23.30
2010,07,09,08,31,23.40
2010,07,09,08,32,23.40
2010,07,09,08,33,23.50
2010,07,09,08,34,23.50
2010,07,09,08,35,23.60
2010,07,09,08,36,23.70
2010,07,09,08,37,23.80
2010,07,09,08,38,23.90
2010,07,09,08,39,23.90
2010,07,09,08,40,23.90
2010,07,09,08,41,23.90
2010,07,09,08,42,24.00
2010,07,09,08,43,24.00
2010,07,09,08,44,24.10
2010,07,09,08,45,24.20
2010,07,09,08,46,24.30
2010,07,09,08,47,24.40
2010,07,09,08,48,24.50
2010,07,09,08,49,24.60
2010,07,09,08,50,24.80
2010,07,09,08,51,24.90
2010,07,09,08,52,25.10
2010,07,09,08,53,25.20
2010,07,09,08,54,25.30
2010,07,09,08,55,25.50
2010,07,09,08,56,25.50
2010,07,09,08,57,25.60
2010,07,09,08,58,25.60
2010,07,09,08,59,25.60
2010,07,09,09,00,25.50
2010,07,09,09,01,25.50
2010,07,09,09,02,25.50
2010,07,09,09,03,25.50
2010,07,09,09,04,25.50
2010,07,09,09,05,25.40
2010,07,09,09,06,25.50
2010,07,09,09,07,25.50
2010,07,09,09,08,25.60
2010,07,09,09,09,25.70
2010,07,09,09,10,25.70
2010,07,09,09,11,25.80
2010,07,09,09,12,25.80
2010,07,09,09,13,25.80
2010,07,09,09,14,25.80
2010,07,09,09,15,25.80
2010,07,09,09,16,25.80
2010,07,09,09,17,25.80
2010,07,09,09,18,25.80
2010,07,09,09,19,25.80
2010,07,09,09,20,25.80
2010,07,09,09,21,25.80
2010,07,09,09,22,25.80
2010,07,09,09,23,25.80
2010,07,09,09,24,25.80
2010,07,09,09,25,25.70
2010,07,09,09,26,25.70
2010,07,09,09,27,25.80
2010,07,09,09,28,25.90
2010,07,09,09,29,25.90
2010,07,09,09,30,25.90
2010,07,09,09,31,25.90
2010,07,09,09,32,25.90
2010,07,09,09,33,25.90
2010,07,09,09,34,25.90
2010,07,09,09,35,25.90
2010,07,09,09,36,25.90
2010,07,09,09,37,25.90
2010,07,09,09,38,25.90
2010,07,09,09,39,25.90
2010,07,09,09,40,25.90
2010,07,09,09,41,25.90
2010,07,09,09,42,26.00
2010,07,09,09,43,26.00
2010,07,09,09,44,26.10
2010,07,09,09,45,26.10
2010,07,09,09,46,26.10
2010,07,09,09,47,26.00
2010,07,09,09,48,25.90
2010,07,09,09,49,25.90
2010,07,09,09,50,25.90
2010,07,09,09,51,25.90
2010,07,09,09,52,25.90
2010,07,09,09,53,25.90
2010,07,09,09,54,25.90
2010,07,09,09,55,25.90
2010,07,09,09,56,25.90
2010,07,09,09,57,25.90
2010,07,09,09,58,25.90
2010,07,09,09,59,26.00
2010,07,09,10,00,26.10
2010,07,09,10,01,26.10
2010,07,09,10,02,26.10
2010,07,09,10,03,26.00
2010,07,09,10,04,26.00
2010,07,09,10,05,26.00
2010,07,09,10,06,26.10
2010,07,09,10,07,26.10
2010,07,09,10,08,26.20
2010,07,09,10,09,26.20
2010,07,09,10,10,26.20
2010,07,09,10,11,26.30
2010,07,09,10,12,26.30
2010,07,09,10,13,26.30
2010,07,09,10,14,26.30
2010,07,09,10,15,26.30
2010,07,09,10,16,26.30
2010,07,09,10,17,26.30
2010,07,09,10,18,26.40
2010,07,09,10,19,26.40
2010,07,09,10,20,26.40
2010,07,09,10,21,26.40
2010,07,09,10,22,26.30
2010,07,09,10,23,26.40
2010,07,09,10,24,26.40
2010,07,09,10,25,26.40
2010,07,09,10,26,26.30
2010,07,09,10,27,26.30
2010,07,09,10,28,26.40
2010,07,09,10,29,26.30
2010,07,09,10,30,26.30
2010,07,09,10,31,26.30
2010,07,09,10,32,26.20
2010,07,09,10,33,26.20
2010,07,09,10,34,26.30
2010,07,09,10,35,26.40
2010,07,09,10,36,26.50
2010,07,09,10,37,26.50
2010,07,09,10,38,26.50
2010,07,09,10,39,26.40
2010,07,09,10,40,26.30
2010,07,09,10,41,26.30
2010,07,09,10,42,26.20
2010,07,09,10,43,26.10
2010,07,09,10,44,26.00
2010,07,09,10,45,25.90
2010,07,09,10,46,25.90
2010,07,09,10,47,25.90
2010,07,09,10,48,25.90
2010,07,09,10,49,25.90
2010,07,09,10,50,25.90
2010,07,09,10,51,26.00
2010,07,09,10,52,26.00
2010,07,09,10,53,25.90
2010,07,09,10,54,25.90
2010,07,09,10,55,26.00
2010,07,09,10,56,26.10
2010,07,09,10,57,26.10
2010,07,09,10,58,26.20
2010,07,09,10,59,26.30
2010,07,09,11,00,26.30
2010,07,09,11,01,26.30
2010,07,09,11,02,26.30
2010,07,09,11,03,26.50
2010,07,09,11,04,26.50
2010,07,09,11,05,26.50
2010,07,09,11,06,26.40
2010,07,09,11,07,26.30
2010,07,09,11,08,26.20
2010,07,09,11,09,26.20
2010,07,09,11,10,26.20
2010,07,09,11,11,26.20
2010,07,09,11,12,26.20
2010,07,09,11,13,26.20
2010,07,09,11,14,26.20
2010,07,09,11,15,26.20
2010,07,09,11,16,26.20
2010,07,09,11,17,26.20
2010,07,09,11,18,26.20
2010,07,09,11,19,26.20
2010,07,09,11,20,26.20
2010,07,09,11,21,26.30
2010,07,09,11,22,26.30
2010,07,09,11,23,26.30
2010,07,09,11,24,26.30
2010,07,09,11,25,26.30
2010,07,09,11,26,26.40
2010,07,09,11,27,26.40
2010,07,09,11,28,26.50
2010,07,09,11,29,26.60
2010,07,09,11,30,26.70
2010,07,09,11,31,26.80
2010,07,09,11,32,26.90
2010,07,09,11,33,26.80
2010,07,09,11,34,26.90
2010,07,09,11,35,27.00
2010,07,09,11,36,27.10
2010,07,09,11,37,27.10
2010,07,09,11,38,27.00
2010,07,09,11,39,26.80
2010,07,09,11,40,26.70
2010,07,09,11,41,26.60
2010,07,09,11,42,26.60
2010,07,09,11,43,26.70
2010,07,09,11,44,26.70
2010,07,09,11,45,26.70
2010,07,09,11,46,26.80
2010,07,09,11,47,26.80
2010,07,09,11,48,26.70
2010,07,09,11,49,26.70
2010,07,09,11,50,26.70
2010,07,09,11,51,26.80
2010,07,09,11,52,26.90
2010,07,09,11,53,26.90
2010,07,09,11,54,27.00
2010,07,09,11,55,27.20
2010,07,09,11,56,27.30
2010,07,09,11,57,27.20
2010,07,09,11,58,27.20
2010,07,09,11,59,27.20
2010,07,09,12,00,27.20
2010,07,09,12,01,27.10
2010,07,09,12,02,27.00
2010,07,09,12,03,27.00
2010,07,09,12,04,27.00
2010,07,09,12,05,26.90
2010,07,09,12,06,26.90
2010,07,09,12,07,26.90
2010,07,09,12,08,27.00
2010,07,09,12,09,27.00
2010,07,09,12,10,27.00
2010,07,09,12,11,27.00
2010,07,09,12,12,27.00
2010,07,09,12,13,27.10
2010,07,09,12,14,27.10
2010,07,09,12,15,27.10
2010,07,09,12,16,27.10
2010,07,09,12,17,27.10
2010,07,09,12,18,27.10
2010,07,09,12,19,27.20
2010,07,09,12,20,27.20
2010,07,09,12,21,27.30
2010,07,09,12,22,27.40
2010,07,09,12,23,27.50
2010,07,09,12,24,27.40
2010,07,09,12,25,27.30
2010,07,09,12,26,27.30
2010,07,09,12,27,27.20
2010,07,09,12,28,27.30
2010,07,09,12,29,27.30
2010,07,09,12,30,27.30
2010,07,09,12,31,27.30
2010,07,09,12,32,27.30
2010,07,09,12,33,27.30
2010,07,09,12,34,27.40
2010,07,09,12,35,27.40
2010,07,09,12,36,27.40
2010,07,09,12,37,27.40
2010,07,09,12,38,27.40
2010,07,09,12,39,27.50
2010,07,09,12,40,27.50
2010,07,09,12,41,27.40
2010,07,09,12,42,27.40
2010,07,09,12,43,27.40
2010,07,09,12,44,27.40
2010,07,09,12,45,27.40
2010,07,09,12,46,27.40
2010,07,09,12,47,27.40
2010,07,09,12,48,27.40
2010,07,09,12,49,27.50
2010,07,09,12,50,27.60
2010,07,09,12,51,27.60
2010,07,09,12,52,27.70
2010,07,09,12,53,27.60
2010,07,09,12,54,27.50
2010,07,09,12,55,27.50
2010,07,09,12,56,27.50
2010,07,09,12,57,27.50
2010,07,09,12,58,27.60
2010,07,09,12,59,27.70
2010,07,09,13,00,27.70
2010,07,09,13,01,27.70
2010,07,09,13,02,27.80
2010,07,09,13,03,28.00
2010,07,09,13,04,28.20
2010,07,09,13,05,28.10
2010,07,09,13,06,28.10
2010,07,09,13,07,28.10
2010,07,09,13,08,28.20
2010,07,09,13,09,28.30
2010,07,09,13,10,28.20
2010,07,09,13,11,28.00
2010,07,09,13,12,27.80
2010,07,09,13,13,27.60
2010,07,09,13,14,27.60
2010,07,09,13,15,27.60
2010,07,09,13,16,27.60
2010,07,09,13,17,27.70
2010,07,09,13,18,27.80
2010,07,09,13,19,27.80
2010,07,09,13,20,27.90
2010,07,09,13,21,27.90
2010,07,09,13,22,27.90
2010,07,09,13,23,27.90
2010,07,09,13,24,27.80
2010,07,09,13,25,27.80
2010,07,09,13,26,27.80
2010,07,09,13,27,27.80
2010,07,09,13,28,27.80
2010,07,09,13,29,27.90
2010,07,09,13,30,27.90
2010,07,09,13,31,28.10
2010,07,09,13,32,28.10
2010,07,09,13,33,28.10
2010,07,09,13,34,28.20
2010,07,09,13,35,28.30
2010,07,09,13,36,28.40
2010,07,09,13,37,28.60
2010,07,09,13,38,28.70
2010,07,09,13,39,28.80
2010,07,09,13,40,28.80
2010,07,09,13,41,28.90
2010,07,09,13,42,29.00
2010,07,09,13,43,29.10
2010,07,09,13,44,29.10
2010,07,09,13,45,29.10
2010,07,09,13,46,29.10
2010,07,09,13,47,29.00
2010,07,09,13,48,28.80
2010,07,09,13,49,28.70
2010,07,09,13,50,28.70
2010,07,09,13,51,28.60
2010,07,09,13,52,28.40
2010,07,09,13,53,28.30
2010,07,09,13,54,28.30
2010,07,09,13,55,28.30
2010,07,09,13,56,28.40
2010,07,09,13,57,28.60
2010,07,09,13,58,28.50
2010,07,09,13,59,28.60
2010,07,09,14,00,28.50
2010,07,09,14,01,28.20
2010,07,09,14,02,28.10
2010,07,09,14,03,28.10
2010,07,09,14,04,28.10
2010,07,09,14,05,28.20
2010,07,09,14,06,28.30
2010,07,09,14,07,28.30
2010,07,09,14,08,28.50
2010,07,09,14,09,28.50
2010,07,09,14,10,28.50
2010,07,09,14,11,28.60
2010,07,09,14,12,28.60
2010,07,09,14,13,28.50
2010,07,09,14,14,28.30
2010,07,09,14,15,28.30
2010,07,09,14,16,28.10
2010,07,09,14,17,28.00
2010,07,09,14,18,27.90
2010,07,09,14,19,27.90
2010,07,09,14,20,28.00
2010,07,09,14,21,28.00
2010,07,09,14,22,27.90
2010,07,09,14,23,27.80
2010,07,09,14,24,27.70
2010,07,09,14,25,27.70
2010,07,09,14,26,27.80
2010,07,09,14,27,27.90
2010,07,09,14,28,27.90
2010,07,09,14,29,27.90
2010,07,09,14,30,27.90
2010,07,09,14,31,28.00
2010,07,09,14,32,28.10
2010,07,09,14,33,28.20
2010,07,09,14,34,28.20
2010,07,09,14,35,28.20
2010,07,09,14,36,28.10
2010,07,09,14,37,28.20
2010,07,09,14,38,28.30
2010,07,09,14,39,28.30
2010,07,09,14,40,28.30
2010,07,09,14,41,28.40
2010,07,09,14,42,28.50
2010,07,09,14,43,28.60
2010,07,09,14,44,28.50
2010,07,09,14,45,28.40
2010,07,09,14,46,28.50
2010,07,09,14,47,28.50
2010,07,09,14,48,28.50
2010,07,09,14,49,28.50
2010,07,09,14,50,28.50
2010,07,09,14,51,28.50
2010,07,09,14,52,28.50
2010,07,09,14,53,28.60
2010,07,09,14,54,28.50
2010,07,09,14,55,28.40
2010,07,09,14,56,28.30
2010,07,09,14,57,28.20
2010,07,09,14,58,28.20
2010,07,09,14,59,28.20
2010,07,09,15,00,28.20
2010,07,09,15,01,28.20
2010,07,09,15,02,28.20
2010,07,09,15,03,28.30
2010,07,09,15,04,28.50
2010,07,09,15,05,28.60
2010,07,09,15,06,28.70
2010,07,09,15,07,28.80
2010,07,09,15,08,28.90
2010,07,09,15,09,29.00
2010,07,09,15,10,29.20
2010,07,09,15,11,29.30
2010,07,09,15,12,29.20
2010,07,09,15,13,29.00
2010,07,09,15,14,28.90
2010,07,09,15,15,28.80
2010,07,09,15,16,28.70
2010,07,09,15,17,28.70
2010,07,09,15,18,28.70
2010,07,09,15,19,28.80
2010,07,09,15,20,28.80
2010,07,09,15,21,28.60
2010,07,09,15,22,28.40
2010,07,09,15,23,28.40
2010,07,09,15,24,28.40
2010,07,09,15,25,28.30
2010,07,09,15,26,28.40
2010,07,09,15,27,28.30
2010,07,09,15,28,28.30
2010,07,09,15,29,28.20
2010,07,09,15,30,28.20
2010,07,09,15,31,28.20
2010,07,09,15,32,28.10
2010,07,09,15,33,28.00
2010,07,09,15,34,28.00
2010,07,09,15,35,27.90
2010,07,09,15,36,28.00
2010,07,09,15,37,28.10
2010,07,09,15,38,28.30
2010,07,09,15,39,28.40
2010,07,09,15,40,28.50
2010,07,09,15,41,28.60
2010,07,09,15,42,28.80
2010,07,09,15,43,28.80
2010,07,09,15,44,28.80
2010,07,09,15,45,28.70
2010,07,09,15,46,28.70
2010,07,09,15,47,28.60
2010,07,09,15,48,28.60
2010,07,09,15,49,28.70
2010,07,09,15,50,28.70
2010,07,09,15,51,28.70
2010,07,09,15,52,28.60
2010,07,09,15,53,28.60
2010,07,09,15,54,28.70
2010,07,09,15,55,28.60
2010,07,09,15,56,28.50
2010,07,09,15,57,28.50
2010,07,09,15,58,28.40
2010,07,09,15,59,28.50
2010,07,09,16,00,28.60
2010,07,09,16,01,28.60
2010,07,09,16,02,28.60
2010,07,09,16,03,28.60
2010,07,09,16,04,28.70
2010,07,09,16,05,28.70
2010,07,09,16,06,28.70
2010,07,09,16,07,28.70
2010,07,09,16,08,28.60
2010,07,09,16,09,28.60
2010,07,09,16,10,28.60
2010,07,09,16,11,28.60
2010,07,09,16,12,28.60
2010,07,09,16,13,28.70
2010,07,09,16,14,28.70
2010,07,09,16,15,28.70
2010,07,09,16,16,28.70
2010,07,09,16,17,28.70
2010,07,09,16,18,28.70
2010,07,09,16,19,28.60
2010,07,09,16,20,28.50
2010,07,09,16,21,28.40
2010,07,09,16,22,28.30
2010,07,09,16,23,28.20
2010,07,09,16,24,28.10
2010,07,09,16,25,28.00
2010,07,09,16,26,27.90
2010,07,09,16,27,27.80
2010,07,09,16,28,27.70
2010,07,09,16,29,27.70
2010,07,09,16,30,27.60
2010,07,09,16,31,27.50
2010,07,09,16,32,27.40
2010,07,09,16,33,27.40
2010,07,09,16,34,27.40
2010,07,09,16,35,27.30
2010,07,09,16,36,27.40
2010,07,09,16,37,27.40
2010,07,09,16,38,27.30
2010,07,09,16,39,27.30
2010,07,09,16,40,27.30
2010,07,09,16,41,27.30
2010,07,09,16,42,27.20
2010,07,09,16,43,27.10
2010,07,09,16,44,27.00
2010,07,09,16,45,26.90
2010,07,09,16,46,26.90
2010,07,09,16,47,26.90
2010,07,09,16,48,26.80
2010,07,09,16,49,26.80
2010,07,09,16,50,26.70
2010,07,09,16,51,26.70
2010,07,09,16,52,26.70
2010,07,09,16,53,26.70
2010,07,09,16,54,26.70
2010,07,09,16,55,26.70
2010,07,09,16,56,26.60
2010,07,09,16,57,26.60
2010,07,09,16,58,26.50
2010,07,09,16,59,26.50
2010,07,09,17,00,26.50
2010,07,09,17,01,26.50
2010,07,09,17,02,26.60
2010,07,09,17,03,26.70
2010,07,09,17,04,26.70
2010,07,09,17,05,26.80
2010,07,09,17,06,26.80
2010,07,09,17,07,26.90
2010,07,09,17,08,27.00
2010,07,09,17,09,27.00
2010,07,09,17,10,27.10
2010,07,09,17,11,27.20
2010,07,09,17,12,27.20
2010,07,09,17,13,27.30
2010,07,09,17,14,27.30
2010,07,09,17,15,27.40
2010,07,09,17,16,27.50
2010,07,09,17,17,27.60
2010,07,09,17,18,27.60
2010,07,09,17,19,27.60